| time (UTC) | temp C | wind direction | speed KPH | gust KPH | rain 1hr cm | rain 24hr cm | rain mn cm | humidity % | barometer mb |
| 20260506033910 | -17 | 19 | 1.6 | 8.0 | 0.00 | 0.00 | 0.00 | 1015.6 | |
| 20260506032912 | -17 | 337 | 0.0 | 4.8 | 0.00 | 0.00 | 0.00 | 1015.7 | |
| 20260506031914 | -17 | 345 | 0.0 | 8.0 | 0.00 | 0.00 | 0.00 | 1015.8 | |
| 20260506030917 | -17 | 324 | 1.6 | 4.8 | 0.00 | 0.00 | 0.00 | 1015.8 | |
| 20260506030357 | -17 | 360 | 1.6 | 6.4 | 0.00 | 0.00 | 0.00 | 1015.8 | |
| 20260506025359 | -17 | 292 | 1.6 | 6.4 | 0.00 | 0.00 | 0.00 | 1015.7 | |
| 20260506024402 | -17 | 296 | 0.0 | 6.4 | 0.00 | 0.00 | 0.00 | 1015.7 | |
| 20260506023405 | -17 | 8 | 0.0 | 4.8 | 0.00 | 0.00 | 0.00 | 1015.7 | |
| 20260506022402 | -17 | 340 | 0.0 | 1.6 | 0.00 | 0.00 | 0.00 | 1015.8 | |
| 20260506021405 | -17 | 340 | 0.0 | 1.6 | 0.00 | 0.00 | 0.00 | 1015.8 | |
| 20260506020406 | -17 | 340 | 0.0 | 1.6 | 0.00 | 0.00 | 0.00 | 1015.9 | |
| 20260506015413 | -17 | 340 | 0.0 | 0.0 | 0.00 | 0.00 | 0.00 | 1016.0 | |
| 20260506014358 | -17 | 340 | 0.0 | 4.8 | 0.00 | 0.00 | 0.00 | 1016.0 | |
| 20260506013401 | -17 | 21 | 0.0 | 1.6 | 0.00 | 0.00 | 0.00 | 1015.9 | |
| 20260506012857 | -17 | 21 | 0.0 | 1.6 | 0.00 | 0.00 | 0.00 | 1015.8 | |
| 20260506011900 | -17 | 21 | 0.0 | 1.6 | 0.00 | 0.00 | 0.00 | 1016.0 | |
| 20260506010907 | -17 | 21 | 0.0 | 4.8 | 0.00 | 0.00 | 0.00 | 1016.0 | |
| 20260506005416 | -17 | 350 | 0.0 | 3.2 | 0.00 | 0.00 | 0.00 | 1016.1 | |
| 20260506004415 | -17 | 350 | 0.0 | 3.2 | 0.00 | 0.00 | 0.00 | 1016.0 | |
| 20260506003901 | -17 | 350 | 0.0 | 4.8 | 0.00 | 0.00 | 0.00 | 1016.1 | |
| 20260506002905 | -17 | 350 | 0.0 | 6.4 | 0.00 | 0.00 | 0.00 | 1016.1 | |
| 20260506001906 | -17 | 350 | 1.6 | 8.0 | 0.00 | 0.00 | 0.00 | 1016.2 | |
| 20260506000915 | -17 | 13 | 3.2 | 8.0 | 0.00 | 0.00 | 0.00 | 1016.2 | |
| 20260506000357 | -17 | 53 | 3.2 | 6.4 | 0.00 | 0.00 | 0.00 | 1016.3 | |
| 20260505235400 | -17 | 12 | 0.0 | 9.7 | 0.00 | 0.00 | 0.00 | 1016.3 | |
| 20260505234402 | -17 | 33 | 1.6 | 6.4 | 0.00 | 0.00 | 0.00 | 1016.2 | |
| 20260505233403 | -17 | 37 | 1.6 | 9.7 | 0.00 | 0.00 | 0.00 | 1016.1 | |
| 20260505232902 | -17 | 12 | 4.8 | 9.7 | 0.00 | 0.00 | 0.00 | 1016.2 | |
| 20260505231904 | -17 | 33 | 0.0 | 11.3 | 0.00 | 0.00 | 0.00 | 1016.2 | |
| 20260505230905 | -17 | 60 | 3.2 | 9.7 | 0.00 | 0.00 | 0.00 | 1016.2 | |
| 20260505225921 | -17 | 85 | 1.6 | 9.7 | 0.00 | 0.00 | 0.00 | 1016.2 | |
| 20260505224912 | -17 | 43 | 0.0 | 8.0 | 0.00 | 0.00 | 0.00 | 1016.2 | |
| 20260505223913 | -17 | 39 | 4.8 | 8.0 | 0.00 | 0.00 | 0.00 | 1016.4 | |
| 20260505222917 | -17 | 38 | 1.6 | 8.0 | 0.00 | 0.00 | 0.00 | 1016.3 | |
| 20260505222358 | -17 | 21 | 3.2 | 12.9 | 0.00 | 0.00 | 0.00 | 1016.3 | |
| 20260505221405 | -17 | 50 | 3.2 | 12.9 | 0.00 | 0.00 | 0.00 | 1016.3 | |
| 20260505220416 | -17 | 60 | 3.2 | 9.7 | 0.00 | 0.00 | 0.00 | 1016.2 | |
| 20260505215416 | -17 | 21 | 0.0 | 8.0 | 0.00 | 0.00 | 0.00 | 1016.2 | |
| 20260505214418 | -17 | 31 | 0.0 | 4.8 | 0.00 | 0.00 | 0.00 | 1016.1 | |
| 20260505213404 | -17 | 19 | 1.6 | 16.1 | 0.00 | 0.00 | 0.00 | 1016.1 | |
| 20260505212403 | -17 | 17 | 3.2 | 8.0 | 0.00 | 0.00 | 0.00 | 1016.1 | |
| 20260505211405 | -17 | 8 | 3.2 | 9.7 | 0.00 | 0.00 | 0.00 | 1016.3 | |
| 20260505210407 | -17 | 17 | 3.2 | 8.0 | 0.00 | 0.00 | 0.00 | 1016.2 | |
| 20260505205411 | -17 | 33 | 3.2 | 12.9 | 0.00 | 0.00 | 0.00 | 1016.2 | |
| 20260505204411 | -17 | 31 | 1.6 | 8.0 | 0.00 | 0.00 | 0.00 | 1016.2 | |
| 20260505203420 | -17 | 41 | 3.2 | 12.9 | 0.00 | 0.00 | 0.00 | 1016.2 | |
| 20260505202917 | -17 | 17 | 3.2 | 12.9 | 0.00 | 0.00 | 0.00 | 1016.2 | |
| 20260505202418 | -17 | 345 | 3.2 | 9.7 | 0.00 | 0.00 | 0.00 | 1016.2 | |
| 20260505201417 | -17 | 43 | 3.2 | 14.5 | 0.00 | 0.00 | 0.00 | 1016.1 | |
| 20260505200401 | -17 | 345 | 3.2 | 14.5 | 0.00 | 0.00 | 0.00 | 1015.9 | |
| 20260505194908 | -17 | 32 | 6.4 | 16.1 | 0.00 | 0.00 | 0.00 | 1015.7 | |
| 20260505193916 | -17 | 360 | 6.4 | 14.5 | 0.00 | 0.00 | 0.00 | 1015.6 | |
| 20260505192919 | -17 | 50 | 4.8 | 12.9 | 0.00 | 0.00 | 0.00 | 1015.6 | |
| 20260505191905 | -17 | 37 | 6.4 | 16.1 | 0.00 | 0.00 | 0.00 | 1015.6 | |
| 20260505190908 | -17 | 19 | 1.6 | 17.7 | 0.00 | 0.00 | 0.00 | 1015.6 | |
| 20260505185908 | -17 | 34 | 4.8 | 19.3 | 0.00 | 0.00 | 0.00 | 1015.5 | |
| 20260505184911 | -17 | 23 | 4.8 | 22.5 | 0.00 | 0.00 | 0.00 | 1015.4 | |
| 20260505183918 | -17 | 89 | 4.8 | 16.1 | 0.00 | 0.00 | 0.00 | 1015.4 | |
| 20260505183358 | -17 | 35 | 4.8 | 24.1 | 0.00 | 0.00 | 0.00 | 1015.4 | |
| 20260505182402 | -17 | 343 | 9.7 | 19.3 | 0.00 | 0.00 | 0.00 | 1015.4 | |
| 20260505181404 | -17 | 15 | 8.0 | 22.5 | 0.00 | 0.00 | 0.00 | 1015.3 | |
| 20260505180406 | -17 | 62 | 8.0 | 19.3 | 0.00 | 0.00 | 0.00 | 1015.1 | |
| 20260505175408 | -17 | 63 | 4.8 | 24.1 | 0.00 | 0.00 | 0.00 | 1015.1 | |
| 20260505174411 | -17 | 29 | 6.4 | 20.9 | 0.00 | 0.00 | 0.00 | 1015.0 | |
| 20260505173413 | -17 | 22 | 3.2 | 22.5 | 0.00 | 0.00 | 0.00 | 1015.0 | |
| 20260505172419 | -17 | 23 | 6.4 | 20.9 | 0.00 | 0.00 | 0.00 | 1015.1 | |
| 20260505171404 | -17 | 316 | 6.4 | 24.1 | 0.00 | 0.00 | 0.00 | 1015.2 | |
| 20260505170406 | -17 | 23 | 6.4 | 16.1 | 0.00 | 0.00 | 0.00 | 1015.1 | |
| 20260505165406 | -17 | 33 | 8.0 | 19.3 | 0.00 | 0.00 | 0.00 | 1015.1 | |
| 20260505164408 | -17 | 350 | 4.8 | 19.3 | 0.00 | 0.00 | 0.00 | 1014.9 | |
| 20260505163416 | -17 | 16 | 6.4 | 19.3 | 0.00 | 0.00 | 0.00 | 1014.9 | |
| 20260505162857 | -17 | 5 | 8.0 | 19.3 | 0.00 | 0.00 | 0.00 | 1015.0 | |
| 20260505161904 | -17 | 341 | 6.4 | 19.3 | 0.00 | 0.00 | 0.00 | 1014.9 | |
| 20260505160906 | -17 | 6 | 8.0 | 17.7 | 0.00 | 0.00 | 0.00 | 1014.8 | |
| 20260505152924 | -17 | 32 | 3.2 | 17.7 | 0.00 | 0.00 | 0.00 | 1014.5 | |
| 20260505152358 | -17 | 40 | 6.4 | 17.7 | 0.00 | 0.00 | 0.00 | 1014.5 | |
| 20260505151405 | -17 | 43 | 3.2 | 16.1 | 0.00 | 0.00 | 0.00 | 1014.5 | |
| 20260505150403 | -17 | 5 | 4.8 | 19.3 | 0.00 | 0.00 | 0.00 | 1014.4 | |
| 20260505124400 | -17 | 52 | 8.0 | 14.5 | 0.00 | 0.00 | 0.00 | 1014.2 | |
| 20260505123402 | -17 | 350 | 3.2 | 12.9 | 0.00 | 0.00 | 0.00 | 1014.1 | |
| 20260505122406 | -17 | 333 | 6.4 | 16.1 | 0.00 | 0.00 | 0.00 | 1014.1 | |
| 20260505121409 | -17 | 40 | 3.2 | 6.4 | 0.00 | 0.00 | 0.00 | 1014.2 | |
| 20260505120410 | -17 | 36 | 3.2 | 9.7 | 0.00 | 0.00 | 0.00 | 1014.0 | |
| 20260505115414 | -17 | 40 | 3.2 | 8.0 | 0.00 | 0.00 | 0.00 | 1014.1 | |
| 20260505114416 | -17 | 341 | 3.2 | 8.0 | 0.00 | 0.00 | 0.00 | 1014.1 | |
| 20260505113902 | -17 | 135 | 0.0 | 8.0 | 0.00 | 0.00 | 0.00 | 1014.2 | |
| 20260505112858 | -17 | 30 | 3.2 | 9.7 | 0.00 | 0.00 | 0.00 | 1014.3 | |
| 20260505111902 | -17 | 355 | 3.2 | 8.0 | 0.00 | 0.00 | 0.00 | 1014.4 | |
| 20260505110909 | -17 | 320 | 0.0 | 6.4 | 0.00 | 0.00 | 0.00 | 1014.2 | |
| 20260505101919 | -17 | 45 | 3.2 | 11.3 | 0.00 | 0.00 | 0.00 | 1014.3 | |
| 20260505101356 | -17 | 76 | 1.6 | 6.4 | 0.00 | 0.00 | 0.00 | 1014.2 | |
| 20260505100359 | -17 | 48 | 1.6 | 9.7 | 0.00 | 0.00 | 0.00 | 1014.2 | |
| 20260505095405 | -17 | 21 | 0.0 | 11.3 | 0.00 | 0.00 | 0.00 | 1014.2 | |
| 20260505094403 | -17 | 83 | 0.0 | 9.7 | 0.00 | 0.00 | 0.00 | 1014.2 | |
| 20260505093406 | -17 | 101 | 1.6 | 6.4 | 0.00 | 0.00 | 0.00 | 1014.2 | |
| 20260505092906 | -17 | 12 | 0.0 | 12.9 | 0.00 | 0.00 | 0.00 | 1014.1 | |
| 20260505091906 | -17 | 183 | 1.6 | 8.0 | 0.00 | 0.00 | 0.00 | 1014.3 | |
| 20260505090908 | -17 | 37 | 4.8 | 16.1 | 0.00 | 0.00 | 0.00 | 1014.2 | |
| 20260505085910 | -17 | 34 | 3.2 | 9.7 | 0.00 | 0.00 | 0.00 | 1014.2 | |
| 20260505084913 | -17 | 14 | 1.6 | 11.3 | 0.00 | 0.00 | 0.00 | 1014.2 | |
| 20260505083916 | -17 | 51 | 1.6 | 6.4 | 0.00 | 0.00 | 0.00 | 1014.2 | |
| 20260505083356 | -17 | 112 | 1.6 | 4.8 | 0.00 | 0.00 | 0.00 | 1014.1 | |
| 20260505082417 | -17 | 333 | 3.2 | 6.4 | 0.00 | 0.00 | 0.00 | 1014.3 | |
| 20260505081856 | -17 | 60 | 1.6 | 6.4 | 0.00 | 0.00 | 0.00 | 1014.3 | |
| 20260505080905 | -17 | 169 | 0.0 | 8.0 | 0.00 | 0.00 | 0.00 | 1014.2 | |
| 20260505075905 | -17 | 27 | 1.6 | 6.4 | 0.00 | 0.00 | 0.00 | 1014.5 | |
| 20260505074906 | -17 | 39 | 4.8 | 9.7 | 0.00 | 0.00 | 0.00 | 1014.5 | |
| 20260505073913 | -17 | 85 | 1.6 | 6.4 | 0.00 | 0.00 | 0.00 | 1014.4 | |
| 20260505073410 | -17 | 78 | 1.6 | 6.4 | 0.00 | 0.00 | 0.00 | 1014.4 | |
| 20260505072905 | -17 | 59 | 0.0 | 3.2 | 0.00 | 0.00 | 0.00 | 1014.3 | |
| 20260505072301 | -17 | 99 | 0.0 | 3.2 | 0.00 | 0.00 | 0.00 | 1014.6 | |
| 20260505070915 | -17 | 105 | 0.0 | 3.2 | 0.00 | 0.00 | 0.00 | 1014.5 | |
| 20260505070400 | -17 | 187 | 0.0 | 3.2 | 0.00 | 0.00 | 0.00 | 1014.6 | |
| 20260505065402 | -17 | 81 | 0.0 | 3.2 | 0.00 | 0.00 | 0.00 | 1014.6 | |
| 20260505064410 | -17 | 81 | 0.0 | 4.8 | 0.00 | 0.00 | 0.00 | 1014.7 | |
| 20260505063409 | -17 | 113 | 0.0 | 1.6 | 0.00 | 0.00 | 0.00 | 1014.9 | |
| 20260505062413 | -17 | 168 | 0.0 | 4.8 | 0.00 | 0.00 | 0.00 | 1014.9 | |
| 20260505061414 | -17 | 59 | 0.0 | 3.2 | 0.00 | 0.00 | 0.00 | 1014.8 | |
| 20260505060416 | -17 | 168 | 0.0 | 3.2 | 0.00 | 0.00 | 0.00 | 1014.7 | |
| 20260505055358 | -17 | 168 | 0.0 | 3.2 | 0.00 | 0.00 | 0.00 | 1014.8 | |
| 20260505054401 | -17 | 168 | 0.0 | 1.6 | 0.00 | 0.00 | 0.00 | 1014.6 | |
| 20260505053407 | -17 | 168 | 0.0 | 3.2 | 0.00 | 0.00 | 0.00 | 1014.6 | |
| 20260505052405 | -17 | 168 | 0.0 | 0.0 | 0.00 | 0.00 | 0.00 | 1014.6 | |
| 20260505051410 | -17 | 168 | 0.0 | 1.6 | 0.00 | 0.00 | 0.00 | 1014.6 | |
| 20260505050411 | -17 | 168 | 0.0 | 3.2 | 0.00 | 0.00 | 0.00 | 1014.7 | |
| 20260505040912 | -17 | 168 | 0.0 | 0.0 | 0.00 | 0.03 | 0.00 | 1014.4 | |
| 20260505035914 | -17 | 168 | 0.0 | 1.6 | 0.00 | 0.03 | 0.00 | 1014.4 | |
| 20260505034915 | -17 | 168 | 0.0 | 0.0 | 0.00 | 0.03 | 0.00 | 1014.5 | |
| 20260505034356 | -17 | 168 | 0.0 | 0.0 | 0.00 | 0.03 | 0.00 | 1014.3 |